Weather in Kivach

Russia / Republic of Karelia     62°16′33″N   33°58′54″E
temp.,
°C
wind,
m/s
gust,
m/s
humid.,
%
clouds,
%
prec.,
mm/h
press.,
hPa
HPBL,
m
1 march, mon
mon100:000wsw389484 0.0 1015323
03:00−1wsw5129689 0.0 1014465
06:00+1w412100100 0.0 1012507
09:00+1w41297100 0.0 1011631
12:00+1w411100100 0.0 1009616
15:00+2w513100100 0.0 1008689
18:00+2w41299100 0.1 1005606
21:00+1w51392100 0.3 10041017
2 march, tue
tue200:000wnw5138681 0.1 1003679
03:00−2wnw5148641 0.1 1004665
06:00−3wnw413860 0.0 1003668
09:00−3wnw4128918 0.0 1004686
12:00−1nw51180100 0.1 10051531
15:00−2nw5127584 0.1 10081378
18:00−5nw3138230 0.0 1010611
21:00−7wnw398716 0.0 1012213
3 march, wed
wed300:00−6wnw399034 0.0 1012228
03:00−5wnw3119342 0.0 1011383
06:00−4wnw4119495 0.1 1009518
09:00−4wnw4109193 0.1 1010491
12:00−2wnw479093 0.0 1009585
15:00−1w488596 0.1 1007862
18:00−2wsw399295 0.0 1003384
21:00−3sse259897 0.3 998169
4 march, thu
thu400:00−2ene4797100 6.9 994360
03:00−3n51194100 10.3 994710
06:00−6nnw3994100 0.1 995381
09:00−8n499499 0.3 996356
12:00−6n488993 0.0 998623
15:00−5nnw488794 0.1 1000874
18:00−7nw399097 0.1 1001344
21:00−10nw269487 0.1 1002145
5 march, fri
fri500:00−12nw239659 0.0 100463
03:00−11nnw129774 0.1 100532
06:00−12nnw129699 0.1 100620
09:00−12n119699 0.1 100876
12:00−9nne2391100 0.3 1010503
15:00−9nne2385100 0.4 1012667
18:00−12n229399 0.1 101326
21:00−15nnw129587 0.1 101520